FW7881 Weather Reports


time (UTC)temp
F
wind
direction
speed
knots
gust
knots
rain 1hr
in
rain 24hr
in
rain mn
in
humidity
%
barometer
mb
20260906173101 76 141 1.7 9.6 0.00 0.00 0.00 79 1018.9
20260906171606 74 250 3.5 7.0 0.00 0.00 0.00 81 1019.2
20260906170057 74 137 0.9 6.1 0.00 0.00 0.00 82 1019.3
20260906164559 73 116 1.7 5.2 0.00 0.00 0.00 82 1019.5
20260906163054 73 138 0.0 5.2 0.00 0.00 0.00 83 1019.5
20260906161602 72 160 0.9 6.1 0.00 0.00 0.00 83 1019.5
20260906160057 72 172 0.9 6.1 0.00 0.00 0.00 84 1019.4
20260906154552 72 188 1.7 7.0 0.00 0.00 0.00 84 1019.5
20260906153100 71 214 3.5 7.0 0.00 0.00 0.00 85 1019.5
20260906151557 71 176 4.3 8.7 0.00 0.00 0.00 85 1019.8
20260906150104 71 203 2.6 7.0 0.00 0.00 0.00 84 1019.7
20260906144620 70 181 3.5 7.8 0.00 0.00 0.00 85 1019.7
20260906143101 70 188 4.3 8.7 0.00 0.00 0.00 85 1019.5
20260906141619 71 214 2.6 7.0 0.00 0.00 0.00 84 1019.5
20260906140059 72 198 0.9 3.5 0.00 0.00 0.00 84 1019.6
20260906134550 71 173 0.9 5.2 0.00 0.00 0.00 86 1019.3
20260906133100 71 209 0.9 2.6 0.00 0.00 0.00 87 1019.2
20260906131557 70 0 0.9 2.6 0.00 0.00 0.00 87 1019.1
20260906130057 70 0 0.0 2.6 0.00 0.00 0.00 88 1019.0
20260906124552 69 0 0.0 0.9 0.00 0.00 0.00 88 1018.9
20260906123058 68 160 0.0 0.9 0.00 0.00 0.00 91 1018.8
20260906121554 68 0 0.0 0.0 0.00 0.00 0.00 91 1018.8
20260906120101 68 0 0.0 0.0 0.00 0.00 0.00 91 1018.7
20260906114552 68 0 0.0 0.0 0.00 0.00 0.00 90 1018.6
20260906113058 68 0 0.0 0.0 0.00 0.00 0.00 90 1018.5
20260906111557 68 0 0.0 0.0 0.00 0.00 0.00 89 1018.4
20260906110055 68 0 0.0 0.0 0.00 0.00 0.00 89 1018.4
20260906104608 69 0 0.0 0.9 0.00 0.00 0.00 88 1018.2
20260906103049 69 0 0.0 0.9 0.00 0.00 0.00 89 1018.2
20260906101553 69 0 0.0 0.0 0.00 0.00 0.00 88 1018.1
20260906100054 70 0 0.0 0.9 0.00 0.00 0.00 87 1018.1
20260906094638 70 0 0.9 1.7 0.00 0.00 0.00 87 1017.6
20260906093106 70 0 0.0 0.9 0.00 0.00 0.00 87 1017.5
20260906091556 70 176 0.0 1.7 0.00 0.00 0.00 87 1017.2
20260906090056 71 0 0.0 0.9 0.00 0.00 0.00 86 1017.4
20260906084558 71 0 0.0 2.6 0.00 0.00 0.00 85 1017.4
20260906083056 71 308 0.0 2.6 0.00 0.00 0.00 85 1017.2
20260906081557 72 101 0.0 4.3 0.00 0.00 0.00 84 1017.0
20260906080056 72 175 0.0 2.6 0.00 0.00 0.00 84 1017.0
20260906074553 72 131 0.0 1.7 0.00 0.00 0.00 84 1017.1
20260906073056 72 0 0.0 0.9 0.00 0.00 0.00 84 1017.2
20260906071555 73 0 0.0 1.7 0.00 0.00 0.00 83 1017.5
20260906070054 73 128 0.0 0.9 0.00 0.00 0.00 83 1017.6
20260906064559 73 0 0.0 1.7 0.00 0.00 0.00 83 1017.9
20260906063057 73 239 0.0 2.6 0.00 0.00 0.00 83 1017.6
20260906061556 73 193 0.9 2.6 0.00 0.00 0.00 84 1017.7
20260906060058 73 0 0.0 1.7 0.00 0.00 0.00 84 1017.8
20260906054558 73 0 0.0 0.9 0.00 0.00 0.00 84 1017.7
20260906053100 73 0 0.0 0.9 0.00 0.00 0.00 83 1017.7
20260906051557 74 0 0.0 0.9 0.00 0.00 0.00 83 1017.7
20260906050115 74 201 0.0 1.7 0.00 0.00 0.00 83 1017.9
20260906044558 73 0 0.0 0.0 0.00 0.00 0.00 84 1018.0
20260906043057 73 0 0.0 0.0 0.00 0.00 0.00 84 1018.0
20260906041557 74 0 0.0 0.0 0.00 0.00 0.00 83 1018.2
20260906040138 73 203 0.0 0.0 0.00 0.00 0.00 83 1018.2
20260906034605 73 0 0.0 0.0 0.00 0.00 0.00 84 1018.1
20260906033059 73 0 0.0 0.0 0.00 0.00 0.00 83 1018.1
20260906031600 74 0 0.0 0.0 0.00 0.00 0.00 83 1018.0
20260906030059 74 0 0.0 0.9 0.00 0.00 0.00 82 1018.2
20260906024602 74 0 0.0 0.0 0.00 0.00 0.00 82 1018.3
20260906023055 74 0 0.0 0.0 0.00 0.00 0.00 82 1018.3
20260906021605 75 0 0.0 0.9 0.00 0.00 0.00 80 1017.8
20260906020100 76 0 0.0 1.7 0.00 0.00 0.00 80 1017.3
20260906014603 76 188 0.0 4.3 0.00 0.00 0.00 79 1017.0
20260906013101 77 173 1.7 5.2 0.00 0.00 0.00 78 1016.3
20260906011600 77 139 1.7 5.2 0.00 0.00 0.00 78 1016.0
20260906010107 78 171 1.7 6.1 0.00 0.00 0.00 78 1015.9
20260906004606 79 214 1.7 5.2 0.00 0.00 0.00 76 1015.8
20260906003103 79 174 1.7 6.1 0.00 0.00 0.00 75 1015.7
20260906001611 80 232 1.7 5.2 0.00 0.00 0.00 73 1015.5
20260906000057 82 191 2.6 6.1 0.00 0.00 0.00 71 1015.4
20260905234553 82 109 1.7 5.2 0.00 0.00 0.00 69 1015.3
20260905233111 83 129 1.7 7.0 0.00 0.00 0.00 68 1015.2
20260905231600 84 153 0.9 2.6 0.00 0.00 0.00 66 1015.1
20260905230103 84 127 0.0 5.2 0.00 0.00 0.00 65 1014.9
20260905224608 84 233 1.7 5.2 0.00 0.00 0.00 64 1014.7
20260905223057 84 104 1.7 4.3 0.00 0.00 0.00 63 1014.5
20260905221553 84 162 1.7 4.3 0.00 0.00 0.00 64 1014.7
20260905214556 83 174 1.7 3.5 0.00 0.00 0.00 67 1015.1
20260905213105 83 142 1.7 5.2 0.00 0.00 0.00 67 1015.2
20260905211555 83 32 0.9 7.0 0.00 0.00 0.00 68 1015.2
20260905210108 83 226 1.7 7.0 0.00 0.00 0.00 69 1015.0
20260905204556 82 102 0.9 6.1 0.00 0.00 0.00 69 1015.3
20260905203057 82 61 2.6 6.1 0.00 0.00 0.00 68 1015.7
20260905201605 82 26 1.7 4.3 0.00 0.00 0.00 71 1016.2
20260905200128 82 53 1.7 3.5 0.00 0.00 0.00 72 1016.5
20260905194601 81 68 0.9 3.5 0.00 0.00 0.00 74 1016.7
20260905193053 80 18 0.9 3.5 0.00 0.00 0.00 75 1016.9
20260905191555 80 6 0.0 1.7 0.00 0.00 0.00 75 1017.1
20260905184610 80 17 0.9 2.6 0.00 0.00 0.00 75 1017.0
20260905183056 80 357 0.9 3.5 0.00 0.00 0.00 74 1017.1
20260905181555 80 131 0.0 1.7 0.00 0.00 0.00 75 1017.2
20260905174601 78 114 1.7 4.3 0.00 0.00 0.00 78 1017.8